Probability
43 40 37 36 37 37 33 30 30 30 30 28 28 30 31 30 28 27 25 23 24 26 26 24 21 19 17 15 14 12 13 14 11 9 11 12 13 13 13 12 10 6 5
41 39 36 34 34 35 33 32 32 31 28 26 26 28 29 27 26 25 25 24 23 25 27 27 25 22 19 17 14 12 13 13 12 10 11 12 13 12 13 13 8 4 2
35 35 34 32 31 32 33 34 34 31 24 21 22 24 25 24 23 24 24 23 22 24 27 28 27 24 22 19 16 14 13 13 12 11 12 13 12 11 13 12 7 4 2
30 31 30 30 30 31 31 32 33 28 21 18 19 20 21 22 23 24 25 23 22 24 26 27 26 24 22 19 17 16 15 13 12 12 13 13 12 11 11 11 7 6 5
30 29 28 28 29 29 29 29 29 26 20 19 20 20 20 20 20 21 22 23 23 24 25 25 24 21 19 16 14 13 13 13 12 11 11 11 11 10 10 8 6 6 6
29 27 26 25 26 27 27 27 26 24 21 20 20 22 21 18 15 14 17 21 23 22 22 22 20 16 13 12 10 8 9 10 10 9 9 10 10 9 8 6 4 4 4
27 25 23 22 24 26 27 27 26 24 22 20 20 23 22 17 11 7 10 17 21 21 20 19 17 13 10 10 8 6 6 7 7 7 9 10 10 10 8 5 4 3 3
25 24 22 23 25 27 28 29 28 27 24 22 21 22 20 15 9 4 5 13 19 20 19 17 16 14 11 9 9 8 8 7 5 5 7 8 8 8 6 4 3 3 3
23 22 21 23 25 26 27 28 28 27 25 23 21 20 19 15 8 3 4 11 16 19 17 15 15 13 10 8 8 9 8 6 3 2 3 4 3 3 2 2 2 3 3
22 21 19 20 21 22 24 25 24 23 23 23 22 20 18 15 8 3 4 9 13 15 15 13 11 10 8 6 6 7 7 4 1 0 1 1 0 0 0 1 2 3 3
20 18 16 18 19 20 21 22 21 20 21 23 23 20 18 14 7 3 3 6 10 12 13 12 10 7 5 4 4 5 4 2 0 0 0 0 1 1 1 2 2 2 2
16 14 15 17 19 20 20 21 20 18 19 20 20 19 18 14 8 4 3 4 6 10 10 9 7 4 2 2 2 3 2 0 0 0 0 0 1 2 2 3 3 2 1
12 12 13 15 17 18 19 20 19 17 16 16 16 16 16 13 10 5 2 1 3 5 6 5 3 2 1 0 1 1 0 0 0 0 0 0 1 1 1 2 2 2 1
10 11 11 12 14 16 17 18 17 15 15 14 13 13 12 11 10 7 4 2 1 1 2 1 1 0 0 0 0 0 0 0 0 0 0 0 0 0 0 1 1 1 1
11 11 10 10 11 13 16 17 15 13 12 11 11 10 9 8 7 5 4 3 1 0 0 1 1 0 0 0 0 0 0 0 0 0 0 0 0 0 0 0 0 0 1
12 10 9 10 11 12 15 15 12 9 7 6 5 5 5 3 2 2 1 1 0 0 1 2 2 1 1 0 0 0 0 0 0 1 1 1 1 1 1 0 0 0 0
11 10 9 10 12 13 15 15 11 6 4 3 2 1 1 0 0 0 0 0 0 0 1 2 2 2 1 0 0 1 1 1 0 1 2 3 2 2 2 1 0 0 0
11 9 8 10 11 12 14 13 10 7 6 5 3 1 0 0 0 0 0 0 0 0 0 1 1 2 1 0 0 1 2 2 2 2 3 3 3 3 3 2 0 0 0
10 9 8 8 9 10 10 9 7 6 8 8 6 3 1 0 0 0 0 0 1 1 1 1 1 0 0 0 0 1 2 3 4 4 3 3 3 2 2 2 1 0 0
8 7 6 5 6 6 6 5 4 4 7 8 6 3 2 1 1 1 0 0 1 2 2 1 0 0 0 0 0 0 1 3 4 4 3 3 3 3 3 3 2 1 0
6 4 3 4 4 4 3 3 3 4 6 6 4 3 2 2 2 1 0 0 1 1 1 2 1 0 0 0 0 0 1 3 3 3 3 3 3 3 3 3 2 1 0
4 3 4 5 5 4 3 2 2 3 4 4 3 2 1 1 1 1 0 0 0 0 1 2 2 1 1 1 0 1 2 3 3 4 3 3 3 3 3 2 2 2 1
3 4 5 6 6 4 2 1 1 1 1 1 1 1 1 1 1 0 0 0 0 0 1 2 3 3 2 2 1 1 2 3 3 4 3 3 3 3 3 2 2 2 2
3 3 4 4 4 3 1 0 0 0 0 0 0 0 1 1 1 1 0 1 2 1 0 1 2 2 2 2 1 1 2 2 2 2 3 3 3 3 3 3 2 2 1
3 3 3 3 3 3 2 1 1 0 0 0 0 0 0 1 1 1 1 1 2 3 2 1 1 1 1 1 0 1 1 1 1 1 2 3 3 3 3 3 3 2 1
3 3 3 3 3 3 4 4 2 1 1 1 0 0 0 0 0 1 1 1 2 4 3 1 0 0 0 0 1 1 1 0 0 0 1 3 3 3 3 3 3 1 0
Wind_Speed
5 5 4 4 4 3 3 3 2 2 2 2 2 2 3 2 3 3 3 3 3 3 3 3 3 2 2 2 2 2 2 1 2 2 1 1 1 2 3 3 4 5 5
4 4 4 3 3 3 3 3 2 2 2 2 2 3 3 3 3 3 3 3 3 4 3 3 3 3 3 2 2 2 2 1 2 3 2 2 2 2 3 3 3 4 3
4 4 4 3 3 3 2 2 3 2 2 2 2 3 3 3 3 3 3 3 3 3 3 4 3 3 3 3 2 3 2 2 2 2 3 2 2 2 2 3 3 2 3
4 4 4 3 3 3 3 2 3 3 3 2 2 3 2 2 2 3 3 3 3 3 3 3 3 4 3 3 3 3 2 3 2 2 3 2 2 2 2 2 2 2 2
3 4 4 3 3 3 2 2 2 3 3 2 2 3 2 2 2 1 2 3 3 3 4 4 4 4 3 3 3 2 3 3 3 3 3 3 2 2 3 2 2 2 2
3 3 3 3 3 3 2 2 2 2 2 2 2 2 2 2 1 0 1 2 3 3 3 3 3 4 4 4 5 4 4 5 4 3 3 3 3 3 2 3 2 2 2
2 2 2 3 3 3 3 2 2 2 2 2 2 2 2 1 1 1 2 3 3 3 3 2 3 3 3 3 4 5 5 6 7 5 4 4 4 3 3 3 3 3 3
1 1 1 2 2 2 2 2 1 1 2 3 3 3 2 2 2 1 2 3 3 3 3 3 2 1 1 1 2 3 4 4 5 5 5 5 4 3 3 4 4 3 3
1 1 1 1 1 1 1 1 1 1 2 3 3 3 2 2 2 2 2 3 2 3 3 2 1 1 2 2 2 3 4 4 4 4 5 5 5 5 3 2 3 3 3
1 1 1 1 1 1 1 1 1 1 2 2 2 2 2 2 2 2 1 3 3 2 2 2 2 2 3 3 3 4 4 4 3 3 4 5 5 5 6 5 4 4 3
1 1 1 1 1 1 1 1 1 2 2 2 2 2 2 2 3 3 2 2 3 3 2 2 2 3 4 5 5 5 5 4 4 4 4 4 4 3 4 4 5 4 4
1 1 1 1 2 1 1 1 2 2 2 2 2 2 2 2 3 3 3 4 4 4 3 2 2 4 4 5 5 6 6 4 4 3 3 3 3 3 3 4 4 5 5
1 1 1 2 1 1 2 2 2 2 2 2 2 2 1 1 1 2 3 4 5 4 3 3 4 4 5 5 6 7 5 4 3 3 3 3 2 2 2 2 3 3 4
2 1 2 2 2 1 1 2 1 2 2 2 2 1 0 0 0 1 1 2 2 3 3 3 3 5 4 4 4 4 4 3 3 3 2 2 2 2 2 2 2 2 2
2 2 3 3 2 1 1 1 1 1 1 1 1 1 1 1 1 2 2 2 2 1 2 2 2 2 2 2 3 3 3 3 3 3 2 2 1 2 2 2 2 2 2
3 3 2 3 2 2 2 1 0 2 4 4 3 1 0 1 2 2 2 3 3 2 2 2 2 2 2 2 2 2 2 2 2 2 2 2 2 1 2 2 2 2 2
3 3 3 3 2 3 3 3 2 1 2 4 3 3 3 2 2 2 2 2 3 2 2 3 2 2 2 2 2 2 2 2 2 2 2 2 2 2 2 2 2 2 2
4 4 4 3 3 3 2 3 2 2 2 2 3 5 5 5 3 2 1 1 1 1 2 2 2 1 1 2 2 2 2 1 1 2 2 2 2 2 2 2 2 3 3
3 3 2 3 3 3 2 2 2 2 2 2 2 3 3 4 3 3 2 1 2 1 1 2 2 1 1 2 2 2 2 1 1 1 2 2 2 2 3 3 3 3 3
3 4 4 3 3 3 2 2 2 1 1 2 2 2 2 2 1 2 2 1 1 1 1 2 2 2 2 2 2 2 2 2 2 2 2 2 2 3 3 4 3 3 3
3 3 4 3 2 2 2 2 2 2 1 1 1 2 3 2 1 1 1 1 1 1 2 2 2 2 2 2 3 3 3 2 2 3 3 3 3 3 3 3 3 3 2
3 2 2 2 2 1 2 2 2 2 1 0 1 2 3 1 0 1 1 1 0 1 1 1 2 2 2 3 3 3 3 3 3 3 4 4 3 3 3 3 2 2 2
3 2 2 1 1 1 2 2 2 1 1 0 0 1 2 1 0 1 1 1 1 1 1 1 1 2 2 2 3 3 3 4 4 4 4 4 4 4 3 3 3 3 2
2 2 1 1 1 1 1 1 1 1 1 1 1 1 1 1 1 1 1 1 1 0 0 1 1 3 4 3 3 3 3 4 4 4 6 5 4 4 3 3 3 4 3
2 1 1 1 1 1 1 2 1 0 0 1 1 1 1 0 1 1 2 1 1 1 1 1 2 2 3 4 4 4 4 4 4 4 5 4 4 5 4 4 3 3 3
1 1 1 1 1 1 1 1 1 1 0 1 1 1 1 1 1 1 1 2 2 2 1 1 2 3 4 3 4 3 3 4 4 5 5 4 4 3 4 3 4 4 4
Wind_Direction
162 163 168 168 172 174 180 189 189 186 196 191 182 199 214 210 205 215 225 222 219 220 220 220 225 226 241 260 258 262 266 262 262 273 268 198 194 194 189 208 191 195 200
151 154 160 156 163 168 183 192 193 200 196 204 203 206 213 208 207 212 221 226 225 220 220 222 227 225 225 251 267 267 261 254 241 263 266 236 226 208 201 216 225 222 204
153 157 149 158 168 180 183 188 197 203 200 205 214 222 225 216 214 217 221 225 229 226 220 221 225 231 237 232 244 258 257 260 239 248 263 252 237 227 215 229 238 235 238
148 153 159 168 177 182 183 194 200 194 204 206 214 230 229 227 223 223 219 228 228 229 229 226 220 221 237 241 238 239 254 264 257 250 256 248 235 233 226 227 239 222 244
151 155 163 171 172 171 183 192 199 196 210 209 212 223 226 222 231 238 237 239 238 237 232 225 222 214 211 230 250 248 249 252 255 249 249 247 238 225 228 234 242 237 232
161 169 166 170 173 176 183 182 196 197 204 208 216 230 237 238 218 97 286 262 253 249 249 240 220 212 211 218 235 245 246 248 251 250 250 248 242 238 237 241 246 245 252
177 167 165 172 179 178 186 175 192 204 203 209 214 225 228 223 234 260 291 275 263 256 253 254 258 244 215 224 236 245 251 252 243 245 251 252 245 234 230 243 244 247 261
174 192 200 195 185 179 176 173 190 214 216 222 220 223 218 212 206 238 285 264 261 254 247 242 236 265 287 278 264 262 262 260 250 238 244 251 253 248 233 238 248 256 262
211 209 223 215 200 202 200 192 199 223 233 232 224 222 212 189 204 218 273 265 252 258 257 262 223 200 265 284 265 268 274 271 271 260 244 240 237 242 234 232 240 241 257
297 280 272 240 234 245 229 196 209 238 240 247 236 227 218 175 181 190 240 273 268 263 242 235 225 232 240 247 256 259 262 274 280 276 263 249 234 230 223 213 224 239 253
298 292 276 259 246 246 249 241 224 235 238 240 241 232 199 160 172 192 218 270 288 279 259 241 238 237 238 239 247 253 256 270 266 249 244 238 227 224 219 218 220 224 240
275 281 277 262 259 251 233 247 240 239 234 228 231 237 214 174 164 198 220 246 284 288 284 278 240 239 240 242 248 254 261 268 257 248 241 235 230 225 224 223 226 227 226
257 261 259 253 253 219 227 237 234 232 237 236 230 232 217 174 160 180 216 248 272 284 300 307 284 252 252 245 241 246 248 245 245 241 238 240 240 229 223 216 218 229 241
236 238 231 222 226 214 234 239 236 251 243 252 248 253 280 109 35 321 273 258 268 278 288 294 278 257 259 257 259 249 238 238 240 248 244 233 229 228 217 211 219 218 228
235 236 238 235 225 218 226 250 232 222 197 220 280 283 257 266 261 258 273 277 276 278 290 274 260 254 245 237 237 240 232 230 237 243 250 245 228 217 225 226 216 215 225
230 238 242 238 222 221 216 194 98 190 168 154 161 165 173 219 236 236 241 260 270 260 255 257 261 259 255 257 258 257 243 233 240 241 232 229 233 237 249 243 226 223 236
237 242 253 250 236 234 226 201 188 165 177 173 173 180 197 215 229 252 258 269 263 216 239 262 267 272 279 283 275 269 258 246 246 241 234 233 239 239 241 247 239 232 235
245 242 254 251 243 246 235 223 215 194 183 177 186 196 204 212 214 225 256 22 292 207 245 273 291 304 309 303 297 289 281 259 254 264 254 244 241 240 247 257 256 249 242
251 261 270 284 273 257 242 229 219 205 186 163 147 155 202 213 210 216 209 232 260 281 285 295 300 308 313 310 307 310 315 306 294 278 271 265 260 259 255 253 255 270 259
241 248 255 269 281 276 261 252 250 238 207 166 160 150 154 177 198 199 209 240 269 299 313 315 317 328 336 337 338 340 341 349 347 323 309 293 272 258 256 253 248 250 247
258 238 234 244 261 281 292 290 285 277 250 186 144 141 168 204 199 177 160 183 303 335 349 349 349 356 357 357 345 336 343 348 343 331 324 319 318 307 292 276 268 268 268
266 254 232 240 244 271 288 290 285 292 315 299 161 147 167 200 33 71 63 73 34 13 4 345 338 352 356 354 348 347 347 340 340 338 332 325 319 314 309 305 294 287 281
262 268 265 249 243 223 246 273 285 291 295 298 288 132 141 133 45 48 43 39 32 21 359 334 332 356 7 9 5 7 360 349 340 333 325 318 314 312 310 310 310 307 295
276 274 298 314 279 272 269 262 268 287 326 352 7 19 54 73 11 3 11 5 334 307 310 335 6 2 10 22 16 11 14 4 344 334 331 322 318 315 312 306 303 301 297
283 296 307 328 328 325 328 320 314 329 133 314 321 344 338 359 27 4 349 321 304 339 10 18 23 14 14 16 10 14 18 7 353 339 327 318 315 316 317 317 319 318 316
298 314 316 318 331 339 330 324 331 342 324 271 290 324 333 337 0 340 341 346 340 359 13 30 26 22 8 1 4 24 24 359 343 335 324 315 314 325 332 325 326 320 313